Location: Paultons Park
(50.9333°N, 1.5500°W)
Time: 05:36:11
(UTC+00:00)

Daily predictions for brighter satellites

Satellite Brightness Start Highest point End
(mag) Time Altitude Azimuth Time Altitude Azimuth Time Altitude Azimuth
ATLAS 2AS CENTAUR R/B 4.1 02:49:03 38° NE 02:49:03 38° NE 02:54:47 10° E
SL-16 R/B 4.4 02:57:22 20° ENE 02:57:22 20° ENE 03:00:19 10° E
Cosmos 2322 Rocket 4.3 03:05:07 22° NE 03:05:07 22° NE 03:08:42 10° E
USA 234 4.0 03:16:39 10° ENE 03:21:13 46° NE 03:21:13 46° NE
IDEFIX/ARIANE 42P 4.4 03:37:16 10° NNE 03:39:26 25° NNE 03:39:26 25° NNE
Lacrosse 5 3.3 03:51:42 35° ENE 03:51:42 35° ENE 03:54:44 10° ENE
SL-4 R/B 4.1 03:53:57 30° E 03:53:57 30° E 03:56:24 10° E
SJ 16-02 3.4 03:54:07 25° E 03:54:07 25° E 03:57:14 10° NE
NOSS 3-4 (A) 4.3 03:58:02 46° N 03:59:29 53° NE 04:06:45 10° ESE
NOSS 3-4 (C) 4.3 03:58:08 46° N 03:59:34 53° NE 04:06:50 10° ESE
CZ-2C R/B 3.8 03:57:29 10° NNE 04:01:58 35° E 04:03:58 25° SE
CZ-4C R/B 3.6 04:05:12 32° N 04:05:12 32° N 04:10:08 10° NE
Cosmos 1605 Rocket 4.1 04:04:20 65° SE 04:05:00 71° E 04:11:07 10° NNE
Cosmos 2082 Rocket 2.5 04:12:04 63° NNE 04:12:04 63° NNE 04:16:50 10° NNE
ASTEX 1 4.0 04:07:58 10° SSE 04:12:48 54° ENE 04:17:41 10° N
ATLAS 5 CENTAUR R/B 4.4 04:12:07 53° W 04:14:11 60° SW 04:46:38 10° SSE
NOSS 2-2 (C) 4.5 04:21:33 72° SW 04:21:33 72° SW 04:29:08 10° SSE
Cosmos 1833 Rocket 3.4 04:25:12 43° N 04:25:12 43° N 04:29:11 10° NNE
ADEOS 4.1 04:25:08 10° NNE 04:28:50 46° N 04:28:50 46° N
Cosmos 839 Rocket 4.0 04:34:14 54° SW 04:35:54 87° NW 04:42:08 10° NE
Cosmos 2360 Rocket 3.2 04:34:42 21° N 04:38:09 42° NE 04:43:31 10° ESE
BREEZE-M DEB (TANK) 4.4 04:40:31 24° SE 04:40:31 24° SE 04:41:47 10° ESE
ATLAS 2AS CENTAUR R/B 2.8 04:36:31 39° NW 04:39:48 87° NE 04:47:01 10° SE
Cosmos 1151 Rocket 4.5 04:35:51 10° N 04:39:58 37° ENE 04:44:01 10° SE
SL-16 R/B 2.2 04:39:17 48° NNW 04:40:56 83° ENE 04:46:37 10° SSE
Cosmos 1980 Rocket 4.0 04:47:47 17° SSW 04:47:47 17° SSW 04:49:06 10° S
COSMOS 2455 2.7 04:45:10 56° NW 04:46:29 78° WSW 04:52:29 10° SSE
MSX 3.7 04:42:25 10° NNE 04:48:09 69° WNW 04:49:49 46° SW
Cosmos 1898 Rocket 3.4 04:47:00 45° SSW 04:48:42 88° ESE 04:54:03 10° NNE
Cosmos 2322 Rocket 2.2 04:46:59 38° NNW 04:49:16 83° ENE 04:54:57 10° SSE
SKYMED 2 4.2 04:45:04 10° SSE 04:49:17 54° ENE 04:52:38 16° N
COBE Rocket 3.9 04:47:43 10° SSE 04:52:52 90° WSW 04:57:21 13° NNW
Cosmos 1937 Rocket 3.5 04:52:31 18° SSW 04:56:22 77° ESE 05:01:31 10° NNE
ATLAS CENTAUR R/B 3.6 04:53:18 10° S 04:57:33 30° ESE 05:01:44 10° ENE
Meteor 2-20 Rocket 4.3 04:57:13 10° NNW 05:03:23 71° W 05:09:30 10° S
STARLINK-60 3.8 05:04:36 49° NE 05:04:36 49° NE 05:07:21 10° ENE
USA 234 3.6 04:59:23 10° ENE 05:05:43 53° N 05:08:33 32° NW
Lacrosse 5 rocket 1.9 05:05:46 39° NNE 05:05:50 39° NNE 05:09:14 10° E
STARLINK-52 3.4 05:08:46 60° NNE 05:08:46 60° NNE 05:11:59 10° ENE
STARLINK-80 3.5 05:10:34 58° SSW 05:11:03 67° SSE 05:14:53 10° ENE
Cosmos 1408 Rocket 4.3 05:07:37 10° S 05:11:48 52° E 05:16:02 10° NNE
Cosmos 858 Rocket 4.3 05:09:03 18° SSW 05:12:55 78° WNW 05:18:10 10° NNE
STARLINK-67 4.2 05:15:22 29° SE 05:15:22 29° SE 05:16:53 10° SE
Cosmos 2100 Rocket 3.9 05:09:14 10° S 05:15:25 86° W 05:21:37 10° N
Cosmos 2151 2.9 05:13:06 10° S 05:17:24 87° W 05:21:45 10° N
CZ-4B R/B 4.1 05:14:01 10° N 05:18:29 64° WNW 05:22:55 10° SSW
PAYLOAD A 4.3 05:13:36 10° N 05:18:44 48° WNW 05:22:10 21° SW
H-2A R/B 3.1 05:17:00 10° N 05:20:56 40° NW 05:20:56 40° NW
Cosmos 1606 3.8 05:17:49 10° N 05:21:28 43° ENE 05:25:07 10° SSE
IDEFIX/ARIANE 42P 3.8 05:17:24 10° N 05:20:14 23° NNW 05:20:14 23° NNW
STARLINK-29 3.2 05:21:34 59° NNW 05:21:46 60° N 05:25:14 10° ENE
Cosmos 1892 2.5 05:20:34 22° SSW 05:22:53 64° WNW 05:26:39 10° N
CZ-4B R/B 4.4 05:18:51 10° NNE 05:24:00 43° E 05:29:11 10° S
Meteor 1-31 Rocket 2.9 05:21:30 10° N 05:25:14 49° WNW 05:25:17 49° WNW
Cosmos 2333 Rocket 3.5 05:19:54 10° NNW 05:25:18 39° NE 05:30:41 10° ESE
Cosmos 1766 Rocket 3.4 05:22:47 10° SSW 05:27:07 76° W 05:31:30 10° N
Cosmos 2219 Rocket 3.4 05:23:39 10° NNW 05:28:56 38° NE 05:34:12 10° ESE
Helios 1A Rocket 4.1 05:25:46 10° NNE 05:29:45 45° E 05:33:40 10° S
Cosmos 1484 Rocket 2.7 05:27:01 10° NNE 05:31:02 83° WNW 05:35:03 10° SSW
SL-4 R/B 2.8 05:29:34 34° W 05:31:11 49° SSW 05:35:50 10° SE
SJ 16-02 1.7 05:31:11 37° W 05:31:59 41° WNW 05:36:10 10° NNE
Okean 3 Rocket 3.6 05:27:55 10° SSW 05:32:21 54° WNW 05:36:46 10° N
FALCON 9 DEB 3.3 05:31:47 49° NW 05:32:24 59° N 05:35:48 10° E
Lacrosse 5 2.2 05:30:55 33° WNW 05:32:51 51° NNW 05:37:49 10° ENE
Cosmos 1802 Rocket 4.0 05:26:26 10° S 05:32:53 84° W 05:39:20 10° N
STARLINK-43 3.2 05:32:15 46° W 05:33:16 79° NNW 05:37:01 10° ENE
Cosmos 372 Rocket 4.2 05:31:58 10° SSW 05:37:05 71° ESE 05:42:12 10° NNE
COSMO-SKYMED 1 2.6 05:33:03 10° S 05:37:17 53° W 05:41:09 13° NNW
Cosmos 1825 2.3 05:35:55 10° S 05:39:39 75° E 05:43:27 10° NNE
CZ-2C R/B 2.9 05:35:45 10° N 05:40:14 36° WNW 05:43:19 17° WSW
STARLINK-46 2.6 05:40:07 55° WNW 05:40:41 88° SSW 05:43:40 10° ESE
STARLINK-48 3.5 05:39:19 29° WSW 05:41:14 80° SSE 05:45:08 10° ENE
ALOS 2.5 05:36:59 10° NNE 05:41:42 75° ESE 05:46:21 10° S
SL-27 R/B 4.4 05:44:32 15° NNW 05:44:32 15° NNW 05:45:28 10° N
CZ-4B R/B 3.2 05:41:05 10° N 05:44:18 33° WNW 05:44:18 33° WNW
Meteor 1-26 Rocket 4.5 05:39:03 10° N 05:44:49 72° ENE 05:50:23 10° SSE
Cosmos 1400 Rocket 3.3 05:40:45 10° N 05:44:50 64° ENE 05:48:50 10° SSE
COSMOS 2487 2.5 05:41:35 10° SSW 05:45:01 75° ESE 05:48:30 10° NNE
Cosmos 2058 4.2 05:46:25 22° NW 05:46:25 22° NW 05:48:49 10° NNW
PAYLOAD B 4.3 05:39:55 10° NNE 05:45:28 81° ESE 05:50:58 10° SSW
Cosmos 2173 Rocket 4.0 05:41:45 10° SSW 05:47:53 56° WNW 05:53:58 10° N
Cosmos 2061 Rocket 3.9 05:42:30 10° SSW 05:48:44 73° WNW 05:54:59 10° N
Gbstr 26 Del rocket 2.5 05:47:22 28° WSW 05:49:17 90° SSE 05:53:03 10° ENE
NOSS 3-4 (A) 4.0 05:45:30 19° NW 05:50:36 55° SW 05:58:00 10° SSE
NOSS 3-4 (C) 4.0 05:45:35 19° NW 05:50:42 56° SW 05:58:07 10° SSE
In-Cosmos 22 Rocket 4.4 05:46:11 10° SW 05:51:19 43° WNW 05:56:36 10° N
ASTEX 1 4.4 05:48:13 10° SW 05:52:09 23° W 05:56:07 10° NNW
Cosmos 2298 Rocket 3.9 05:48:59 10° SSW 05:54:18 79° WNW 05:59:38 10° NNE
CZ-4C R/B 3.9 05:50:23 15° NW 05:54:28 28° N 06:00:33 10° ENE
DMSP B5D1-3 4.5 05:50:31 10° SSE 05:55:39 78° WSW 06:00:50 10° NNW
Cosmos 1048 Rocket 4.0 05:50:20 10° NNW 05:55:41 64° WSW 06:00:58 10° S
Cosmos 2082 Rocket 3.3 05:53:57 21° WNW 05:55:56 25° NW 06:00:34 10° NNE
SL-16 R/B 4.4 05:52:49 10° N 05:56:34 18° NNE 06:00:19 10° ENE
CZ-4B DEB 4.1 05:51:55 10° NNE 05:57:25 76° WNW 06:02:52 10° SSW
USA 116 3.8 05:55:56 10° S 05:59:05 42° W 06:02:30 11° NNW
STARLINK-35 4.4 05:56:29 10° SW 06:00:31 52° SSE 06:04:33 10° ENE
Cosmos 2233 Rocket 4.3 05:55:36 10° S 06:01:50 75° E 06:08:11 10° NNE
NOSS 3-3 (A) 4.3 05:56:47 14° WSW 06:02:04 53° NNW 06:08:53 10° NE
NOSS 3-3 (C) 4.3 05:56:52 14° WSW 06:02:10 53° NNW 06:09:00 10° NE
STARLINK-51 4.3 05:58:11 10° SW 06:02:14 53° SSE 06:06:17 10° ENE
STARLINK-30 4.3 05:59:51 10° SW 06:03:54 54° SSE 06:07:58 10° ENE
STARLINK-33 4.3 06:01:28 10° SW 06:05:32 55° SSE 06:09:36 10° ENE
Cosmos 2237 4.3 06:00:06 10° NW 06:05:40 58° WSW 06:11:15 10° S
Cosmos 1864 Rocket 4.4 05:59:37 10° SSW 06:05:45 71° WNW 06:11:58 10° N
Cosmos 2228 Rocket 3.1 06:02:01 10° NNW 06:06:37 71° W 06:11:10 10° S
SJ-12 4.1 06:02:43 10° N 06:06:46 49° WNW 06:10:46 10° SW
Okean O Rocket 1.5 06:02:31 10° NNE 06:06:54 79° WNW 06:11:14 10° SSW
STARLINK-50 4.2 06:03:06 10° SW 06:07:10 56° SSE 06:11:15 10° ENE
Cosmos 1833 Rocket 4.2 06:06:55 15° NW 06:08:49 17° NNW 06:12:31 10° N
STARLINK-56 4.2 06:06:23 10° SW 06:10:27 58° SSE 06:14:33 10° ENE
STARLINK-26 4.0 06:07:11 10° SW 06:11:14 64° SSE 06:15:18 10° ENE
Starlink (trailer) 4.1 06:08:15 10° SW 06:12:19 60° SSE 06:16:26 10° ENE
STARLINK-61 3.7 06:08:36 10° WSW 06:12:35 76° SSE 06:16:38 10° ENE
STARLINK-38 4.1 06:09:43 10° SW 06:13:49 61° SSE 06:17:55 10° ENE
STARLINK-65 4.1 06:11:25 10° SW 06:15:31 62° SSE 06:19:37 10° ENE
COSMOS 2428 2.9 06:11:32 10° NNW 06:17:17 74° ENE 06:23:00 10° SE
Cosmos 1151 Rocket 4.0 06:13:43 10° NNW 06:17:22 26° W 06:21:00 10° SW
STARLINK-69 4.0 06:16:20 10° WSW 06:20:26 66° SSE 06:24:34 10° ENE
STARLINK-66 4.0 06:18:03 10° WSW 06:22:10 67° SSE 06:26:18 10° ENE
Cosmos 2360 Rocket 2.6 06:16:51 10° NW 06:22:11 42° WSW 06:27:29 10° S
Cosmos 1833 4.3 06:17:35 10° SSW 06:23:13 86° ESE 06:28:53 10° NNE
RESURS DK-1 3.5 06:19:18 10° NNW 06:23:14 41° NE 06:27:10 10° ESE
Cosmos 1408 3.5 06:20:25 10° SW 06:23:34 26° WNW 06:26:42 10° NNW
STARLINK-41 3.9 06:19:35 10° WSW 06:23:43 68° SSE 06:27:51 10° ENE
SL-16 R/B 3.5 06:21:12 13° WNW 06:24:20 19° W 06:28:15 10° SW
Cosmos 1515 Rocket 4.3 06:21:10 10° NNW 06:25:00 31° W 06:28:49 10° SSW
STARLINK-64 3.9 06:21:18 10° WSW 06:25:25 70° SSE 06:29:34 10° ENE
Cosmos 2237 Rocket 3.3 06:20:12 10° NNW 06:25:35 41° NE 06:30:56 10° ESE
Cosmos 1707 Rocket 4.2 06:21:19 10° N 06:25:46 61° ENE 06:30:12 10° SSE
STARLINK-70 3.9 06:22:55 10° WSW 06:27:03 71° SSE 06:31:11 10° ENE
STARLINK-68 3.8 06:24:42 10° WSW 06:28:50 74° SSE 06:32:59 10° ENE
ATLAS 2AS CENTAUR R/B 3.8 06:23:59 11° WNW 06:29:56 27° WSW 06:35:41 10° SSW
STARLINK-58 3.8 06:26:04 10° WSW 06:30:12 73° SSE 06:34:21 10° ENE
COSMOS 2455 4.3 06:28:22 11° WNW 06:31:29 16° WSW 06:35:02 10° SW
STARLINK-62 3.8 06:27:58 10° WSW 06:32:06 76° SSE 06:36:16 10° ENE
Cosmos 1805 Rocket 3.8 06:28:10 10° S 06:32:29 74° E 06:36:50 10° NNE
Cosmos 2322 Rocket 3.5 06:28:50 10° WNW 06:32:38 19° W 06:36:32 10° SW
Cosmos 1743 Rocket 3.7 06:28:44 10° SSW 06:32:55 47° WNW 06:37:08 10° N
Abrixas rocket 3.4 06:30:14 10° SW 06:33:02 35° SSE 06:35:51 10° E
Cosmos 1933 4.3 06:30:01 10° NNW 06:33:27 27° W 06:36:51 10° SSW
STARLINK-63 3.8 06:29:34 10° WSW 06:33:43 76° SSE 06:37:52 10° ENE
Cosmos 1269 Rocket 4.1 06:29:08 10° NNW 06:34:24 64° WSW 06:39:37 10° S
STARLINK 3.8 06:31:03 10° WSW 06:35:11 73° SSE 06:39:20 10° ENE
Radarsat Rocket 3.9 06:30:22 10° NNE 06:36:15 86° WNW 06:42:10 10° SSW
ATLAS CENTAUR R/B 1.8 06:31:32 10° WSW 06:36:21 56° NW 06:41:01 10° NE
STARLINK-72 3.8 06:32:49 10° WSW 06:36:58 77° SSE 06:41:07 10° ENE
Cosmos 1725 Rocket 4.3 06:32:28 10° SW 06:38:27 45° WNW 06:44:30 10° N
Cosmos 1437 3.6 06:37:09 10° SW 06:39:47 26° WNW 06:42:27 10° N
CZ-2C R/B 3.8 06:35:32 10° SSE 06:40:04 89° WSW 06:44:45 10° NNW
STARLINK-59 3.7 06:36:13 10° WSW 06:40:22 81° SSE 06:44:32 10° ENE
STARLINK-60 3.1 06:37:39 10° WNW 06:40:58 82° NNE 06:44:20 10° ESE
Envisat 4.4 06:36:45 10° NNE 06:41:38 44° E 06:46:29 10° S
STARLINK-57 3.7 06:37:56 10° WSW 06:42:05 82° SSE 06:46:15 10° ENE
Cosmos 494 Rocket 4.3 06:37:41 10° NW 06:42:43 47° WSW 06:47:42 10° S
Cosmos 2251 Rocket 4.2 06:39:36 10° NNW 06:44:49 55° ENE 06:49:58 10° SE
Lacrosse 5 rocket 1.2 06:41:32 10° WNW 06:45:06 61° SW 06:48:38 10° SE
Cosmos 1315 Rocket 2.8 06:41:05 10° NNW 06:45:07 73° W 06:49:09 10° S
STARLINK-28 3.7 06:41:12 10° WSW 06:45:21 84° SSE 06:49:31 10° ENE
Meteor 2-3 Rocket 3.8 06:40:06 10° SSW 06:45:47 60° WNW 06:51:33 10° N
STARLINK-52 3.3 06:42:23 10° WNW 06:45:55 72° NNE 06:49:26 10° E
STARLINK-53 3.7 06:42:18 10° WSW 06:46:28 85° SSE 06:50:38 10° ENE
STARLINK-75 3.7 06:42:40 10° WSW 06:46:50 89° SE 06:51:00 10° ENE
USA 234 3.4 06:41:51 10° ESE 06:48:22 74° NNE 06:54:55 10° WNW
STARLINK-54 3.7 06:44:31 10° WSW 06:48:40 86° SSE 06:52:50 10° ENE
STARLINK-80 3.5 06:45:42 10° W 06:49:30 63° N 06:53:20 10° ENE
Exosat Rocket 4.1 06:44:58 10° NW 06:50:16 59° WSW 06:57:13 10° S
Cosmos 1980 4.2 06:45:15 10° NNW 06:50:53 61° NE 06:56:30 10° SE
